Weather History for Mount Carmel, IL

Change the Weather History Date:

Sunday, October 28, 2012

  Actual Average (KLWV) Record (KLWV)
Temperature  
Mean Temperature 46 °F 54 °F  
Max Temperature 53 °F 65 °F 80 °F (1999)
Min Temperature 37 °F 43 °F 26 °F (2001)
Degree Days  
Heating Degree Days 19 12  
Month to date heating degree days 221  
Since 1 July heating degree days 260  
Cooling Degree Days 0 0  
Month to date cooling degree days 31  
Year to date cooling degree days 1385  
Moisture  
Dew Point 33 °F    
Average Humidity 66    
Maximum Humidity 81    
Minimum Humidity 41    
Precipitation  
Precipitation 0.00 in 0.11 in 0.61 in (1980)
Month to date precipitation 3.74  
Year to date precipitation 36.28  
Sea Level Pressure  
Sea Level Pressure 30.16 in    
Wind  
Wind Speed 10 mph (North)    
Max Wind Speed 20 mph    
Max Gust Speed 28 mph    
Visibility 10 miles    
Events      
T = Trace of Precipitation, MM = Missing Value Source: NWS Daily Summary

Daily Weather History Graph

Daily Weather History Graph

Search for Another Location

Airport:

Trip Planner

Search our weather history database for the weather conditions in past years. The results will help you decide how hot, cold, wet, or windy it might be!

Date:

Astronomy

Oct. 28, 2012 Rise Set
Actual Time 7:13 AM CDT 5:54 PM CDT
Civil Twilight 6:46 AM CDT 6:22 PM CDT
Nautical Twilight 6:15 AM CDT 6:53 PM CDT
Astronomical Twilight 5:44 AM CDT 7:24 PM CDT
Moon 5:12 PM CDT (10/28) 6:06 AM CDT (10/28)
Length of Visible Light 11h 35m
Length of Day
10h 41m
Waxing Gibbous, 99% of the Moon is Illuminated
Oct 28
Waxing Gibbous
Oct 29
Full
Nov 6
Last Quarter
Nov 13
New
Nov 20
First Quarter

Hourly Weather History & Observations

Time (CDT) Temp. Windchill Dew Point Humidity Pressure Visibility Wind Dir Wind Speed Gust Speed Precip Events Conditions
12:15 AM 42.8 °F 37.5 °F 35.6 °F 76% 30.16 in 10.0 mi North 9.2 mph - N/A   Clear
12:55 AM 41.0 °F 35.2 °F 35.6 °F 81% 30.17 in 10.0 mi North 9.2 mph - N/A   Clear
1:15 AM 41.0 °F 34.7 °F 35.6 °F 81% 30.17 in 10.0 mi North 10.4 mph - N/A   Clear
1:35 AM 41.0 °F 35.2 °F 35.6 °F 81% 30.17 in 10.0 mi North 9.2 mph - N/A   Clear
1:55 AM 41.0 °F 35.2 °F 35.6 °F 81% 30.17 in 10.0 mi North 9.2 mph - N/A   Clear
2:15 AM 41.0 °F 35.2 °F 35.6 °F 81% 30.17 in 10.0 mi North 9.2 mph - N/A   Clear
2:35 AM 41.0 °F 35.2 °F 35.6 °F 81% 30.17 in 10.0 mi North 9.2 mph - N/A   Clear
2:55 AM 41.0 °F 34.7 °F 35.6 °F 81% 30.17 in 10.0 mi North 10.4 mph - N/A   Clear
3:15 AM 41.0 °F 35.8 °F 35.6 °F 81% 30.17 in 10.0 mi North 8.1 mph - N/A   Clear
3:35 AM 41.0 °F 35.2 °F 33.8 °F 76% 30.16 in 10.0 mi North 9.2 mph - N/A   Clear
3:55 AM 41.0 °F 34.3 °F 33.8 °F 76% 30.16 in 10.0 mi North 11.5 mph - N/A   Clear
4:15 AM 41.0 °F 33.9 °F 33.8 °F 76% 30.15 in 10.0 mi North 12.7 mph 16.1 mph N/A   Clear
4:35 AM 41.0 °F 34.7 °F 33.8 °F 76% 30.15 in 10.0 mi North 10.4 mph - N/A   Clear
4:55 AM 41.0 °F 34.7 °F 33.8 °F 76% 30.16 in 10.0 mi North 10.4 mph - N/A   Clear
5:15 AM 41.0 °F 34.7 °F 33.8 °F 76% 30.16 in 10.0 mi North 10.4 mph 16.1 mph N/A   Clear
5:35 AM 41.0 °F 34.7 °F 33.8 °F 76% 30.17 in 10.0 mi North 10.4 mph - N/A   Clear
5:55 AM 41.0 °F 35.2 °F 33.8 °F 76% 30.16 in 10.0 mi North 9.2 mph - N/A   Clear
6:15 AM 41.0 °F 34.7 °F 33.8 °F 76% 30.16 in 10.0 mi North 10.4 mph - N/A   Clear
6:35 AM 39.2 °F 32.5 °F 33.8 °F 81% 30.16 in 10.0 mi North 10.4 mph - N/A   Clear
6:55 AM 39.2 °F 33.6 °F 33.8 °F 81% 30.16 in 10.0 mi North 8.1 mph - N/A   Clear
7:15 AM 39.2 °F 33.6 °F 33.8 °F 81% 30.17 in 10.0 mi North 8.1 mph - N/A   Clear
7:35 AM 39.2 °F 34.2 °F 33.8 °F 81% 30.17 in 10.0 mi North 6.9 mph - N/A   Clear
7:55 AM 39.2 °F 35.0 °F 33.8 °F 81% 30.18 in 10.0 mi North 5.8 mph - N/A   Clear
8:15 AM 41.0 °F 36.4 °F 33.8 °F 76% 30.18 in 10.0 mi North 6.9 mph - N/A   Clear
8:35 AM 41.0 °F 35.2 °F 35.6 °F 81% 30.18 in 10.0 mi North 9.2 mph - N/A   Clear
8:55 AM 41.0 °F 35.8 °F 35.6 °F 81% 30.18 in 10.0 mi North 8.1 mph - N/A   Clear
9:15 AM 42.8 °F 37.5 °F 33.8 °F 70% 30.18 in 10.0 mi North 9.2 mph - N/A   Clear
9:35 AM 44.6 °F 39.7 °F 35.6 °F 71% 30.18 in 10.0 mi North 9.2 mph 16.1 mph N/A   Clear
9:55 AM 44.6 °F 38.8 °F 33.8 °F 66% 30.18 in 10.0 mi NNE 11.5 mph - N/A   Clear
10:15 AM 46.4 °F 41.9 °F 33.8 °F 62% 30.18 in 10.0 mi North 9.2 mph 18.4 mph N/A   Clear
10:35 AM 46.4 °F 40.7 °F 33.8 °F 62% 30.18 in 10.0 mi North 12.7 mph - N/A   Clear
10:55 AM 48.2 °F - 33.8 °F 58% 30.18 in 10.0 mi NNE 11.5 mph - N/A   Clear
11:15 AM 50.0 °F - 33.8 °F 54% 30.18 in 10.0 mi NNE 11.5 mph 17.3 mph N/A   Clear
11:35 AM 50.0 °F - 32.0 °F 50% 30.18 in 10.0 mi NE 16.1 mph 20.7 mph N/A   Clear
12:15 PM 51.8 °F - 32.0 °F 47% 30.17 in 10.0 mi NNE 16.1 mph 23.0 mph N/A   Scattered Clouds
12:35 PM 51.8 °F - 32.0 °F 47% 30.17 in 10.0 mi NNE 11.5 mph 19.6 mph N/A   Scattered Clouds
12:55 PM 51.8 °F - 32.0 °F 47% 30.16 in 10.0 mi North 17.3 mph 20.7 mph N/A   Scattered Clouds
1:15 PM 53.6 °F - 32.0 °F 44% 30.15 in 10.0 mi North 12.7 mph - N/A   Scattered Clouds
1:35 PM 51.8 °F - 32.0 °F 47% 30.14 in 10.0 mi North 17.3 mph 27.6 mph N/A   Scattered Clouds
1:55 PM 51.8 °F - 32.0 °F 47% 30.14 in 10.0 mi North 13.8 mph 19.6 mph N/A   Scattered Clouds
2:15 PM 53.6 °F - 32.0 °F 44% 30.14 in 10.0 mi North 12.7 mph 25.3 mph N/A   Scattered Clouds
2:35 PM 53.6 °F - 32.0 °F 44% 30.13 in 10.0 mi North 12.7 mph 20.7 mph N/A   Scattered Clouds
2:55 PM 53.6 °F - 32.0 °F 44% 30.13 in 10.0 mi North 19.6 mph 24.2 mph N/A   Scattered Clouds
3:15 PM 53.6 °F - 30.2 °F 41% 30.14 in 10.0 mi North 15.0 mph 21.9 mph N/A   Scattered Clouds
3:35 PM 53.6 °F - 30.2 °F 41% 30.14 in 10.0 mi North 12.7 mph - N/A   Scattered Clouds
3:55 PM 53.6 °F - 30.2 °F 41% 30.14 in 10.0 mi North 16.1 mph 25.3 mph N/A   Scattered Clouds
4:15 PM 51.8 °F - 32.0 °F 47% 30.14 in 10.0 mi NNW 17.3 mph 21.9 mph N/A   Mostly Cloudy
4:35 PM 51.8 °F - 32.0 °F 47% 30.14 in 10.0 mi NW 19.6 mph 25.3 mph N/A   Mostly Cloudy
4:55 PM 50.0 °F - 32.0 °F 50% 30.15 in 10.0 mi North 16.1 mph 24.2 mph N/A   Scattered Clouds
5:15 PM 50.0 °F - 32.0 °F 50% 30.15 in 10.0 mi NNW 17.3 mph 25.3 mph N/A   Clear
5:35 PM 46.4 °F 39.8 °F 32.0 °F 57% 30.15 in 10.0 mi NNW 16.1 mph 20.7 mph N/A   Clear
5:55 PM 46.4 °F 40.7 °F 32.0 °F 57% 30.16 in 10.0 mi NNW 12.7 mph 19.6 mph N/A   Clear
6:15 PM 46.4 °F 41.9 °F 32.0 °F 57% 30.16 in 10.0 mi NNW 9.2 mph - N/A   Clear
6:35 PM 44.6 °F 40.2 °F 32.0 °F 61% 30.17 in 10.0 mi NNW 8.1 mph - N/A   Clear
6:55 PM 42.8 °F 38.6 °F 32.0 °F 66% 30.17 in 10.0 mi NNW 6.9 mph - N/A   Clear
7:15 PM 42.8 °F 39.3 °F 32.0 °F 66% 30.17 in 10.0 mi NW 5.8 mph - N/A   Clear
7:35 PM 42.8 °F 38.0 °F 32.0 °F 66% 30.17 in 10.0 mi NW 8.1 mph - N/A   Clear
7:55 PM 41.0 °F 35.8 °F 32.0 °F 70% 30.17 in 10.0 mi NNW 8.1 mph - N/A   Clear
8:15 PM 41.0 °F 35.8 °F 32.0 °F 70% 30.17 in 10.0 mi NNW 8.1 mph - N/A   Clear
8:35 PM 41.0 °F 35.8 °F 32.0 °F 70% 30.17 in 10.0 mi NNW 8.1 mph - N/A   Clear
8:55 PM 41.0 °F 36.4 °F 32.0 °F 70% 30.17 in 10.0 mi NNW 6.9 mph - N/A   Clear
9:15 PM 41.0 °F 35.2 °F 32.0 °F 70% 30.17 in 10.0 mi NNW 9.2 mph - N/A   Clear
9:35 PM 41.0 °F 35.8 °F 32.0 °F 70% 30.17 in 10.0 mi NNW 8.1 mph - N/A   Clear
10:35 PM 41.0 °F 35.2 °F 32.0 °F 70% 30.18 in 10.0 mi NNW 9.2 mph - N/A   Clear
11:15 PM 39.2 °F 33.0 °F 32.0 °F 75% 30.18 in 10.0 mi NNW 9.2 mph - N/A   Clear
11:55 PM 37.4 °F 31.4 °F 32.0 °F 81% 30.18 in 10.0 mi NW 8.1 mph - N/A   Clear